Location: *
(44.2500°S, 172.8333°W)
Time: 16:40:34
(UTC+00:00)

Daily predictions for brighter satellites

Satellite Brightness Start Highest point End
(mag) Time Altitude Azimuth Time Altitude Azimuth Time Altitude Azimuth
USA 59 Rocket 2.5 15:05:19 42° ENE 15:05:19 42° ENE 15:09:44 10° NE
SME Rocket 4.3 15:48:00 10° NNE 15:56:52 83° ESE 15:57:07 81° SE
Cosmos 1302 Rocket 4.1 16:19:51 71° E 16:19:51 71° E 16:24:45 10° NNE
Spot 4 Rocket 4.3 16:16:27 10° NNE 16:21:34 68° ESE 16:22:13 61° SSE
Cosmos 2034 Rocket 4.0 16:29:11 11° S 16:35:14 78° E 16:41:25 10° NNE
Cosmos 1980 Rocket 4.4 16:36:12 10° S 16:40:16 20° SE 16:44:19 10° E
SMAP 3.5 16:36:04 10° NNE 16:40:42 61° ESE 16:43:03 29° S
Meteor 2-21 Rocket 4.3 16:35:32 10° NNW 16:41:42 71° W 16:48:00 10° S
Atlas Centaur 2 4.0 16:41:13 14° NNW 16:42:41 16° N 16:45:36 10° NE
USA 215 3.2 16:36:37 10° NE 16:43:10 75° NW 16:45:12 48° WSW
SL-4 R/B 2.5 16:44:42 54° SSE 16:44:42 54° SSE 16:48:03 10° ESE
DMSP B5D2-2 4.3 16:42:50 10° S 16:54:44 - NNW 16:47:13 52° SSW
BREEZE-M DEB (TANK) 3.4 16:47:39 46° SSW 16:48:26 51° S 16:58:57 10° E
PSLV R/B 3.7 16:44:12 10° N 16:47:45 58° NNW 16:47:45 58° NNW
Okean 3 Rocket 4.4 16:45:33 17° S 16:48:57 53° ESE 16:53:20 10° NNE
Cosmos 1833 Rocket 3.5 16:45:46 10° N 16:51:14 53° ENE 16:56:46 10° SE
Helios 1B rocket 4.3 16:48:16 10° NE 16:51:39 27° ESE 16:55:04 10° S
USA 59 Rocket 2.1 16:51:56 34° WNW 16:51:56 34° WNW 16:57:58 10° N
Cosmos 614 Rocket 3.8 16:49:54 24° NNW 16:53:03 78° WSW 16:58:12 10° SSE
Meteor 2-6 Rocket 4.3 16:48:27 10° N 16:54:27 86° E 17:00:29 10° S
NOSS 3-4 (C) 3.9 16:51:30 26° SSW 16:55:39 66° SE 17:01:49 10° NE
NOSS 3-4 (A) 3.8 16:51:40 26° SSW 16:55:47 67° SE 17:01:54 10° NE
Cosmos 1842 Rocket 3.9 16:54:01 10° N 16:58:28 67° E 17:02:59 10° SSE
Cosmos 724 4.3 16:56:36 10° NW 17:02:42 85° WSW 17:08:57 10° SSE
Cosmos 1607 3.7 17:00:10 19° NW 17:04:38 73° SW 17:10:46 10° SSE
Cosmos 546 4.5 17:10:41 63° W 17:11:13 80° SSW 17:15:06 10° ESE
Radarsat 4.5 17:06:27 10° N 17:11:40 78° WNW 17:16:30 13° SSW
Aureole 3 Rocket 2.8 17:10:43 44° SW 17:11:49 62° W 17:15:17 10° N
Meteor 1-14 Rocket 4.1 17:08:10 14° SSW 17:13:04 70° W 17:18:40 10° N
Cosmos 1464 Rocket 4.5 17:11:27 29° SW 17:13:46 38° W 17:19:34 10° NNW
Cosmos 2360 4.2 17:09:54 21° SSW 17:13:54 87° ESE 17:19:37 10° NNE
Cosmos 44 Rocket 4.1 17:13:55 32° WNW 17:13:57 32° WNW 17:18:26 10° N
Meteor 1-31 Rocket 3.2 17:11:11 10° NNE 17:14:56 59° ESE 17:18:21 12° S
Cosmos 1656 3.7 17:13:48 32° SW 17:16:09 54° WNW 17:21:30 10° N
Cosmos 1766 Rocket 3.9 17:17:56 41° W 17:18:07 41° W 17:22:15 10° NNW
Cosmos 1408 Rocket 4.0 17:14:19 10° S 17:18:44 62° E 17:23:08 10° NNE
Genesis I 3.6 17:19:13 10° NNW 17:22:44 56° ENE 17:26:16 10° SE
CORIOLIS 4.2 17:18:07 10° N 17:23:26 57° W 17:28:25 12° SSW
Tsikada Rocket 3.9 17:19:29 10° NNW 17:25:41 64° W 17:31:54 10° S
Lacrosse 5 rocket 3.5 17:27:06 10° NW 17:27:06 10° NW 17:27:17 10° NW
Cosmos 1992 Rocket 4.1 17:25:20 22° SW 17:28:37 56° WNW 17:33:45 10° N
IGS 5A 3.9 17:30:42 10° NNE 17:34:46 63° ESE 17:38:53 10° S
Cosmos 1151 Rocket 4.5 17:31:42 10° NNE 17:35:46 40° E 17:39:56 10° SSE
USA 32 4.0 17:30:49 10° N 17:36:05 87° W 17:41:26 10° S
Tiangong -0.6 17:35:26 22° NW 17:36:23 26° NNW 17:39:07 10° NE
Cosmos 1726 2.9 17:40:08 25° WNW 17:40:08 25° WNW 17:42:12 10° NNW
Cosmos 1634 Rocket 4.0 17:34:05 10° SSW 17:40:26 66° W 17:46:43 10° N
SKYMED 2 3.6 17:40:17 10° SSE 17:44:44 84° ENE 17:49:07 10° NNW
ADEOS Rocket 2.8 17:39:56 10° NNE 17:45:36 88° ESE 17:51:12 10° SSW
Okean 1 3.1 17:42:26 10° NNW 17:46:12 62° W 17:50:03 10° S
ATLAS 2AS CENTAUR R/B 4.5 17:41:31 10° SSW 17:47:04 23° SSE 17:52:43 10° ESE
Cosmos 1536 2.9 17:44:36 12° SSW 17:48:08 50° W 17:51:53 10° N
CZ-2C R/B 2.9 17:44:36 10° N 17:48:16 48° W 17:51:39 12° SSW
SL-16 R/B 4.4 17:46:48 10° S 17:50:40 18° SE 17:54:30 10° E
CZ-4B R/B 4.2 17:47:57 10° N 17:52:02 52° W 17:56:17 10° SSW
Cosmos 2082 Rocket 3.4 17:47:21 10° N 17:52:42 47° ENE 17:58:08 10° SE
SAR-Lupe-2 3.7 17:52:32 10° NNE 17:56:08 80° ESE 17:59:48 10° S
Resurs 01 Rocket 4.4 17:56:23 10° E 17:58:32 13° ESE 18:00:41 10° SSE
Radarsat Rocket 4.3 17:52:56 10° NNE 18:00:18 86° WNW 18:06:51 10° SSW
Cosmos 2369 4.4 17:55:26 10° SSW 18:01:02 53° ESE 18:06:34 10° NE
Sich 1 3.0 18:00:04 10° SSW 18:04:24 68° W 18:08:42 10° N
Cosmos 1697 Rocket 2.9 17:58:50 10° SSW 18:04:26 56° WNW 18:09:58 10° N
Cosmos 1500 Rocket 3.7 18:00:21 10° SSW 18:04:46 57° W 18:09:04 10° N
ADEOS 4.4 18:00:55 10° NE 18:06:00 53° ESE 18:11:09 10° S
Cosmos 1626 3.0 18:06:32 10° NNE 18:09:37 44° E 18:12:46 10° SSE
Cosmos 1340 Rocket 3.5 18:08:25 10° NW 18:11:59 32° WSW 18:15:38 10° S
Cosmos 1340 3.5 18:09:29 11° SW 18:12:13 26° W 18:15:07 10° NNW
YAOGAN 1 2.6 18:11:38 10° NNE 18:15:58 89° W 18:20:22 10° SSW
Cosmos 1805 Rocket 3.9 18:18:08 10° SSW 18:22:19 44° W 18:26:27 10° NNW
SL-4 R/B 3.0 18:19:28 11° WSW 18:23:08 30° S 18:26:44 10° SE
Cosmos 1980 Rocket 2.2 18:19:16 10° SSW 18:24:57 80° WNW 18:30:36 10° NNE
Helios 1B rocket 3.5 18:22:45 10° NNW 18:26:02 25° W 18:29:23 10° SW
Cosmos 2322 Rocket 4.2 18:25:25 10° S 18:29:45 22° SE 18:34:02 10° E
Atlas Centaur 2 4.1 18:28:17 10° NW 18:30:12 12° NNW 18:31:59 10° NNE
COSMO-SKYMED 1 3.3 18:28:43 10° S 18:32:37 31° WSW 18:36:29 10° NW
Meteor 2-4 Rocket 3.7 18:27:53 10° N 18:33:20 86° W 18:39:01 10° S
Cosmos 1733 4.3 18:30:57 10° SW 18:33:48 22° W 18:36:38 10° NW
Cosmos 1666 Rocket 3.7 18:29:44 10° S 18:34:16 82° E 18:38:41 10° N
Cosmos 1975 2.8 18:30:58 10° SSW 18:34:55 72° W 18:38:51 10° N
Cosmos 1833 Rocket 3.6 18:30:40 10° WNW 18:35:27 27° SW 18:40:17 10° S
Nadezhda 4 Rocket 4.0 18:30:11 10° NNW 18:36:20 73° W 18:42:32 10° S
